Regional Weather Roundup
Issued by NWS

Home | Current Version | Previous Version | Text Only | Print | Product List | Glossary On
Versions: 1 2 3 4 5 6 7 8 9 10 11 12 13 14 15 16 17 18 19 20 21 22 23 24 25 26 27 28 29 30 31 32 33 34 35 36 37 38 39 40 41 42 43 44 45 46 47
000
ASUS42 KTBW 281710
RWRFL
FLORIDA REGIONAL WEATHER ROUNDUP
NATIONAL WEATHER SERVICE TAMPA BAY RUSKIN FL
1200 PM EST TUE FEB 28 2017

NOTE: "FAIR" INDICATES FEW OR NO CLOUDS BELOW 12,000 FEET WITH NO
SIGNIFICANT WEATHER AND/OR OBSTRUCTIONS TO VISIBILITY.

FLZ001>010-012>015-112-114-115-281800-
PANHANDLE FLORIDA

CITY           SKY/WX    TMP DP  RH WIND       PRES   REMARKS
PENSACOLA      FAIR      75  66  73 SE17      30.22
PENSACOLA NAS  PTSUNNY   75  67  76 SE14      30.22
MILTON NAS     PTSUNNY   73  65  75 S15       30.22
CRESTVIEW      CLOUDY    70  64  81 S9        30.26
DUKE FIELD     PTSUNNY   70  64  83 SE10      30.24
VALPARAISO     PTSUNNY   73  66  79 SE13      30.24
MARY ESTHER    PTSUNNY   73  63  68 SE14      30.22
PANAMA CITY    CLOUDY    74  67  78 S12       30.25
TYNDALL AFB    MOSUNNY   79  68  69 VRB3      30.24R
APALACHICOLA   FAIR      74  67  78 SE10      30.26

STATION/POSITION SKY/WX   TEMP    WIND        PRES    WAVE   SWELL
                          AIR SEA DIR/SP/G            HT/PER HT/PER
                          (F)     (DEG/KT/KT) (MB)    (FT/S) (FT/S)
30.1N   87.6W              70 68  150/  8/ 10 1023.2    3/ 6   3/ 6
28.8N   86.0W              73 72              1023.5    3/ 7   2/ 7
PANAMA CITY BEAC           68     160/  9/ 10 1024.7
TOWER C                    69     130/  8/  9 1024.8
28.5N   84.5W              72 70  140/ 10/ 12 1023.8    2/ 7   2/ 7

$$
FLZ011-016>038-118-127-128-134-139-239-281800-
NORTH FLORIDA

CITY           SKY/WX    TMP DP  RH WIND       PRES   REMARKS
MARIANNA       FAIR      77  63  61 SW12      30.24
TALLAHASSEE    FAIR      80  62  54 S13       30.24
PERRY          FAIR      81  61  50 S5        30.25
CROSS CITY     FAIR      84  66  54 S12       30.24
LAKE CITY      FAIR      81  63  54 SE5       30.25
GAINESVILLE    PTSUNNY   80  64  58 S8        30.26
WILLISTON      MOSUNNY   82  68  61 VRB7G13   30.26
PALATKA        FAIR      82  66  57 SW9       30.27
MAYPORT NAS    FAIR      80  68  66 SE10      30.26
JACKSONVILLE   FAIR      81  64  56 S9        30.25
JAX NAS        FAIR      78  67  68 S12       30.27
FERNANDINA BEA FAIR      82  70  65 S5        30.24
ST AUGUSTINE   FAIR      81  69  67 SE15      30.27

STATION/POSITION SKY/WX   TEMP    WIND        PRES    WAVE   SWELL
                          AIR SEA DIR/SP/G            HT/PER HT/PER
                          (F)     (DEG/KT/KT) (MB)    (FT/S) (FT/S)
SHELL POINT      NOT AVBL
KEATON BEACH               71     170/ 14/ 17 1024.2
CEDAR KEY        NOT AVBL
FERNANDINA                 79 68  180/  6/  9 1025.3
30.7N   81.3W                 67                N/A     3/ 7
MAYPORT                    78 66  140/  7/  9 1025.0
31.4N   80.9W              67 64  150/  8/ 10 1024.7    3/ 7   3/ 7
ST AUGUSTINE               70 69  140/ 10/ 11 1025.7

$$
FLZ040-043>046-052-053-057-058-063-144-281800-
INTERIOR CENTRAL FLORIDA

CITY           SKY/WX    TMP DP  RH WIND       PRES   REMARKS
OCALA          PTSUNNY   79  66  65 SW6       30.28
THE VILLAGES     N/A     79  73  83 CALM      30.17
LEESBURG       FAIR      80  67  64 S6        30.29
SANFORD        FAIR      81  66  60 VRB7      30.27
ORLANDO EXEC   FAIR      82  67  60 S12G20    30.27
ORLANDO INTL   FAIR      84  67  56 S10G17    30.27
KISSIMMEE      PTSUNNY   81  69  67 SE12      30.28
WINTER HAVEN   FAIR      83  64  52 SE10      30.28
LAKELAND       MOSUNNY   81  68  65 SE10      30.27
BARTOW         PTSUNNY   81  64  57 SE10      30.27
OKEECHOBEE     CLOUDY    79  68  69 SE7       30.29

$$
FLZ041-047-054-059-064-141-147-281800-
EAST CENTRAL FLORIDA

CITY           SKY/WX    TMP DP  RH WIND       PRES   REMARKS
DAYTONA BEACH  FAIR      80  68  66 VRB3      30.28
DELAND         FAIR      82  66  57 S7        30.27
NEW SMYRNA BEA MOSUNNY   79  68  69 E6        30.29
JFK SPACE CTR  FAIR      81  67  63 S13       30.27F
TITUSVILLE     MOSUNNY   81  64  57 E12       30.29
CAPE CANAVERAL FAIR      81  69  67 S13       30.27
PATRICK AFB    FAIR      79  68  69 SE9       30.28
MELBOURNE      CLOUDY    79  67  66 E7        30.28
VERO BEACH     CLOUDY    78  68  71 SE12      30.30
FT PIERCE      CLOUDY    75  69  81 E12       30.29
STUART         PTSUNNY   81  72  74 E12       30.30

STATION/POSITION SKY/WX   TEMP    WIND        PRES    WAVE   SWELL
                          AIR SEA DIR/SP/G            HT/PER HT/PER
                          (F)     (DEG/KT/KT) (MB)    (FT/S) (FT/S)
TRIDENT PIER               76 72  150/  9/ 11 1026.8
28.4N   80.5W                 72                N/A     3/ 5
27.5N   80.2W                 73                N/A     4/ 5

$$
FLZ050-056-061-142-242-148-248-149-249-151-251-155-255-
160-260-281800-
WEST CENTRAL FLORIDA

CITY           SKY/WX    TMP DP  RH WIND       PRES   REMARKS
CRYSTAL RIVER  PTSUNNY   81  64  57 S7        30.27
INVERNESS      PTSUNNY   79  70  73 S9        30.28
BROOKSVILLE    FAIR      81  69  67 VRB3      30.28
CLEARWATER AIR FAIR      79  68  69 E7        30.26
ST PETE CLEARW FAIR      82  67  60 SE14G20   30.25
TAMPA INTL     FAIR      83  67  58 E12       30.26
TAMPA EXEC     PTSUNNY   86  66  51 SE7G16    30.26
PLANT CITY     FAIR      84  68  58 SE13G20   30.28
MACDILL AFB    FAIR      83  74  73 SE10      30.25
PETER O KNIGHT FAIR      84  70  61 S9        30.25
ST PETERSBURG  FAIR      79  69  71 S6        30.23
SARASOTA       FAIR      83  66  56 SE13      30.22
VENICE         FAIR      84  68  58 SE14      30.24

STATION/POSITION SKY/WX   TEMP    WIND        PRES    WAVE   SWELL
                          AIR SEA DIR/SP/G            HT/PER HT/PER
                          (F)     (DEG/KT/KT) (MB)    (FT/S) (FT/S)
27.3N   84.2W                 73                N/A     2/ 5
CLEARWATER BEACH           79     160/  9/ 12 1024.6
MIDDLE TAMPA BAY           77     170/  7/ 10 1024.4
VENICE                     76 71  190/  7/  9 1023.5

$$
FLZ066-069-070-075>078-162-262-165-265-281800-
SOUTHWEST FLORIDA AND KEYS

CITY           SKY/WX    TMP DP  RH WIND       PRES   REMARKS
PUNTA GORDA    FAIR      85  66  53 S14G21    30.25
FT MYERS       FAIR      85  67  54 SE10      30.23
SOUTHWEST INTL FAIR      83  65  54 SE13      30.24
NAPLES         FAIR      84  67  56 SE15      30.23
MARCO ISLAND   CLOUDY    82  66  57 E12       30.24
MARATHON       FAIR      84  72  67 E10G20    30.23
KEY WEST NAS   FAIR      82  71  69 E17       30.23
KEY WEST INTL  FAIR      82  73  74 E16       30.23

STATION/POSITION SKY/WX   TEMP    WIND        PRES    WAVE   SWELL
                          AIR SEA DIR/SP/G            HT/PER HT/PER
                          (F)     (DEG/KT/KT) (MB)    (FT/S) (FT/S)
NAPLES                        74              1024.0
26.0N   85.6W              76 75  110/ 14/ 17 1022.6    4/ 7   2/ 7
DRY TORTUGAS               76     120/ 14/ 16 1023.0
SAND KEY                   77      90/ 29/ 49 1024.0

$$
FLZ067-068-071>074-168-172>174-281800-
SOUTHEAST FLORIDA

CITY           SKY/WX    TMP DP  RH WIND       PRES   REMARKS
W PALM BEACH   FAIR      81  67  62 SE18      30.28
BOCA RATON     MOSUNNY   82  70  65 SE12G20   30.27
FT LAUDER-EXEC FAIR      82  65  56 E17G24    30.26
FT LAUDERDALE  FAIR      81  69  67 SE20      30.25
POMPANO BEACH  FAIR      81  69  67 SE17      30.26
PEMBROKE PINES FAIR      83  68  60 E15       30.27
OPA LOCKA      FAIR     N/A N/A N/A E12       30.26
MIAMI          PTSUNNY   82  67  60 SE18G26   30.26
WEST KENDALL   FAIR      83  67  58 SE16G24   30.25
HOMESTEAD      FAIR      82  73  76 E17G24    30.25

STATION/POSITION SKY/WX   TEMP    WIND        PRES    WAVE   SWELL
                          AIR SEA DIR/SP/G            HT/PER HT/PER
                          (F)     (DEG/KT/KT) (MB)    (FT/S) (FT/S)
PORT EVERGLADES            79     120/  8/ 11 1025.2
VIRGINIA KEY               77     110/ 13/ 16 1025.2
LAKE WORTH                        130/ 14/ 17   N/A
FOWEY ROCKS                76 76  100/ 18/ 20 1024.9
SETTLEMENT POINT           76     110/ 14/ 16 1025.2

$$




USA.gov is the U.S. government's official web portal to all federal, state and local government web resources and services.